Regional Weather Roundup
Issued by NWS

Home | Current Version | Previous Version | Graphics & Text | Print | Product List | Glossary On
Versions: 1 2 3 4 5 6 7 8 9 10 11 12 13 14 15 16 17 18 19 20 21 22 23 24 25 26 27 28 29 30 31 32 33 34 35 36 37 38 39 40 41 42 43 44 45 46 47 48 49 50
000
ASUS43 KMKX 300711
RWRWI

WISCONSIN REGIONAL WEATHER ROUNDUP
NATIONAL WEATHER SERVICE MILWAUKEE/SULLIVAN WI
200 AM CDT FRI SEP 30 2016

NOTE: "FAIR" INDICATES FEW OR NO CLOUDS BELOW 12,000 FEET WITH NO
SIGNIFICANT WEATHER AND/OR OBSTRUCTIONS TO VISIBILITY.

WIZ001-002-006>008-014>016-023>028-300800-
NORTHWEST WISCONSIN

CITY           SKY/WX    TMP DP  RH WIND       PRES   REMARKS
SUPERIOR ARPT  CLOUDY    52  51  95 E3        30.45F
ASHLAND        CLOUDY    52  51  97 MISG      30.45F
HAYWARD        CLOUDY    51  49  92 NE7       30.43F
SIREN          CLOUDY    52  51  97 NE5       30.42S
CUMBERLAND     CLEAR     48  46  93 NE3       30.41S
RICE LAKE      CLEAR     47  46  94 CALM      30.42S FOG
CHETEK         NOT AVBL
LADYSMITH      CLEAR     49  48  97 CALM      30.43R FOG
EAU CLAIRE     CLEAR     51  50  96 NE7       30.38S
MENOMONIE      CLEAR     50  48  92 CALM      30.39S
NEW RICHMOND   CLEAR     50  50  99 CALM      30.39S
OSCEOLA        CLEAR     51  51 100 CALM      30.42S
$$

WIZ003>005-009-010-017-018-300800-
NORTH CENTRAL WISCONSIN

CITY           SKY/WX    TMP DP  RH WIND       PRES   REMARKS
MANITOWISH WTR NOT AVBL
ARBOR VITAE    CLEAR     49  48  96 CALM      30.42S
WOODRUFF       CLEAR     49  48  96 CALM      30.42S
RHINELANDER    CLEAR     47  47 100 N3        30.41S
EAGLE RIVER    CLEAR     45  45 100 CALM      30.41F FOG
LAND O LAKES   CLEAR     47  47 100 NE3       30.44S
PHILLIPS       CLOUDY    48  48 100 NE5       30.41S FOG
TOMAHAWK       FOG       41  40  97 CALM      30.41S VSB 1/4
MEDFORD        CLEAR    N/A N/A N/A NE6       30.39R
MERRILL        CLEAR     48  48 100 CALM      30.40S
$$

WIZ029-030-035-036-043>047-300800-
CENTRAL WISCONSIN

CITY           SKY/WX    TMP DP  RH WIND       PRES   REMARKS
WAUSAU         CLEAR     52  48  86 CALM      30.36S
MOSINEE        CLEAR     50  48  93 N8        30.38S
MARSHFIELD     CLEAR     54  48  80 NE9       30.36S
STEVENS POINT  CLEAR     50  49  94 N8        30.35F
WAUPACA        CLEAR     56  53  92 N5        30.34S
WAUTOMA        PTCLDY    56  52  86 NE8       30.33S
WISC RAPIDS    CLEAR     53  50  89 NE8       30.35F
CAMP DOUGLAS   CLEAR     48  47  97 W6        30.33F
$$

WIZ011>013-019>022-031-037>040-048>050-300800-
NORTHEAST WISCONSIN

CITY           SKY/WX    TMP DP  RH WIND       PRES   REMARKS
ANTIGO         CLEAR     48  47  97 CALM      30.39S
SHAWANO        CLEAR     56  52  85 NE7       30.36S
OCONTO         NOT AVBL
STURGEON BAY   CLOUDY    59  56  89 N9        30.34F
GREEN BAY      CLOUDY    57  56  96 N12       30.32F
MANITOWOC      LGT RAIN  60  56  86 MISG      30.29F
APPLETON       CLOUDY    54  54 100 N14       30.30F
CLINTONVILLE   CLEAR     54  50  87 N8        30.34S
OSHKOSH        CLOUDY    59  55  87 NE12      30.29F
$$

WIZ032>034-041-042-053>061-300800-
SOUTHWEST WISCONSIN

CITY           SKY/WX    TMP DP  RH WIND       PRES   REMARKS
LA CROSSE      CLEAR     54  51  90 NW7       30.34S
SPARTA         PTCLDY    46  46  98 CALM      30.35S
VIROQUA        CLEAR     53  50  91 NE7       30.33S
BOSCOBEL       CLEAR     51  47  86 CALM      30.30S
PRAIRIE DU CHI CLEAR     52  49  89 CALM      30.30S
PLATTEVILLE    CLEAR     55  51  89 N8        30.28S
$$

WIZ056-057-062-063-064-067-068-300800-
SOUTH CENTRAL WISCONSIN

CITY           SKY/WX    TMP DP  RH WIND       PRES   REMARKS
REEDSBURG      NOT AVBL
BARABOO/DELLS  CLOUDY    57  52  81 NE7       30.30S
LONE ROCK      CLEAR     56  50  80 N8        30.30S
MINERAL POINT  CLEAR     54  50  87 N8        30.28S
MADISON        CLOUDY    56  53  90 N8        30.27S
MIDDLETON      CLOUDY    57  55  91 N10       30.28S
WATERTOWN      CLOUDY    59  56  87 NE7       30.26S
MONROE         CLOUDY    55  54  94 N12       30.24F
JANESVILLE     MOCLDY    59  55  88 N7        30.22F
$$

WIZ051-052-058>065-066-070>072-300800-
SOUTHEAST WISCONSIN

CITY           SKY/WX    TMP DP  RH WIND       PRES   REMARKS
MILWAUKEE      CLOUDY    61  56  83 NE12      30.23F
WAUKESHA       CLOUDY    57  54  88 NE10G16   30.24F
MILWAUKEE/TIMM LGT RAIN  59  52  77 NE10G18   30.24F
RACINE         CLOUDY    61  56  83 NE16G24   30.22F
BURLINGTON     CLOUDY    58  54  84 N10G16    30.21F
KENOSHA        CLOUDY    60  57  89 NE13      30.20F
FOND DU LAC    CLOUDY    61  55  81 NE14      30.29S
SHEBOYGAN      CLOUDY    60  55  83 NE14      30.27F
WEST BEND      CLOUDY    66  63  88 NE8       30.25F
JUNEAU         CLOUDY    58  54  84 N9        30.27F
$$

LSZ147-162-300800-
LAKE SUPERIOR

STATION/POSITION TIME  TEMP    WIND        PRES    WAVE
                       AIR SEA DIR/SP/G            HT/PER
                 (UTC) (F)     (DEG/KT/KT) (MB)    (FT/S)
W MID LAKE BUOY  0650   55 56   60/  6/  8 1031.1F   2/ 5
DEVILS ISLAND    0600   53      70/  8/  9 1031.8F
SAXON HARBOR     0640   54      CALM  /  3 1030.5F
$$

LMZ867-665-643>646-300800-
LAKE MICHIGAN

STATION/POSITION TIME  TEMP    WIND        PRES    WAVE
                       AIR SEA DIR/SP/G            HT/PER
                 (UTC) (F)     (DEG/KT/KT) (MB)    (FT/S)
CHAMBERS ISLAND  0600   59     360/ 19/ 22 1027.4S
S GREEN BAY BUOY 0600   58 62   30/ 14/ 17 1026.8F
N MID LAKE BUOY  0650   64 65   80/ 14/ 17 1027.1S   3/ 4
NORTHPORT PIER   0600   60      10/ 13/ 14 1027.8F
SISTER BAY       0608   59      30/  8/ 11   N/A
KEWAUNEE LAKESHO 0600   63      60/  7/ 13 1026.1F
SHEBOYGAN LAKESH 0700   61      30/ 16/ 17 1024.6F
PORT WASHINGTON  0600   60      50/ 12/ 18 1025.7F
ATWATER BUOY     0600   57      30/ 14/ 17 1023.7F
MILWAUKEE LAKESH 0610   58      30/ 14/ 16   N/A
S MID LAKE BUOY  0650   63 68   60/ 21/ 27 1021.4F   5/ 7
KENOSHA   LAKESH 0600   62      40/ 18/ 23 1022.7F
$$

TC  - TEMPERATURE IN CELSIUS
VSB - VISIBILITY IN STATUTE MILES
WCI - WIND CHILL INDEX
HX  - HEAT INDEX





USA.gov is the U.S. government's official web portal to all federal, state and local government web resources and services.